Location: Unspecified
(40.2007°N, 0.0000°E)
Time: 05:03:48
(UTC+00:00)

XW-3 (CAS 9) - Visible Passes

Search period start: 04 April 2026 00:00
Search period end: 14 April 2026 00:00
Orbit: 752 x 757 km, 98.5° (Epoch: 29 March)

Date Brightness Start Highest point End Pass type
(mag) Time Alt. Az. Time Alt. Az. Time Alt. Az.
4 Apr ? 23:09:58 14° NNW 23:09:58 14° NNW 23:10:39 10° NNW visible
5 Apr ? 22:29:26 15° N 22:29:26 15° N 22:30:20 10° N visible
6 Apr ? 21:48:54 11° NNE 21:48:54 11° NNE 21:49:09 10° NNE visible
6 Apr ? 23:28:51 13° NNW 23:28:51 13° NNW 23:29:28 10° NNW visible
7 Apr ? 22:48:19 17° N 22:48:19 17° N 22:49:27 10° N visible
8 Apr ? 22:07:47 14° NNE 22:07:47 14° NNE 22:08:46 10° NNE visible
8 Apr ? 23:47:45 12° NNW 23:47:45 12° NNW 23:48:08 10° NNW visible
9 Apr ? 23:07:13 18° N 23:07:13 18° N 23:08:25 10° N visible
10 Apr ? 22:26:41 17° NNE 22:26:41 17° NNE 22:28:04 10° N visible
11 Apr ? 21:46:09 12° NE 21:46:09 12° NE 21:46:47 10° NNE visible
11 Apr ? 23:26:06 17° NNW 23:26:06 17° NNW 23:27:15 10° NNW visible
12 Apr ? 22:45:34 20° N 22:45:34 20° N 22:47:11 10° N visible
13 Apr ? 22:05:02 16° NNE 22:05:02 16° NNE 22:06:27 10° NNE visible
13 Apr ? 23:45:00 15° NNW 23:45:00 15° NNW 23:45:56 10° NNW visible
